map of LLW home
LLW - Airport
Location
City:  Lilongwe, Malawi
Name:Kumuzu International Airport
ICAO:FWKI
IATA:LLW

Details
Type:Airport (Aerodrome, Airfield)
Use:Public/Civil, International (customs port of entry)
Latitude:1347'22"S (-13.789377)
Longitude:3346'52"E (33.781000)
Datum:WGS 1984
Elevation:4035 ft (1230 m)
Variation:5.23W (WMM2015 magnetic declination)
-0.01 annual change
Runways:1
Longest:11614 × 148 ft (3540 × 45 m), paved

Time
Time Zone:UTC+2
Local Time:

Weather
METAR:FWKI 201400Z 22006KT 9999 -RA FEW008 FEW028CB SCT080 21/20 Q1017 NOSIG
TAF:FWKI 201400Z 2018/2124 22007KT 9999 FEW020CB BKN080
BECMG 2105/2107 SCT020 BKN090
BECMG 2108/2110 FEW020CB BKN025 PROB30
TEMPO 2110/2114 9999 TS FEW020CB BKN022
BECMG 2114/2116 FEW020CB BKN080

Related Locations
Nearby:
Farthest:ITO: 11730 mi / 18877 km
Hilo [Hilo Intl], Hawaii, HI, US

Find:

   beyond  
but within

Other Information
Maps:
NOTAMs:
Links:
Sources:

  
  • flag of Malawi
  

Sectional Chart

Flight Planning
at skyvector.com

Satellite Image

Google Maps Satellite view

 

Copyright © 2004-2019 Karl L. Swartz. All rights reserved.
The Great Circle Mapper name and logo are trademarks of the Great Circle Mapper.
All other trademarks mentioned herein belong to their respective owners.
Please see credits for attibutions and further copyright information.

  Follow gcmap on Facebook Follow gcmap on Twitter Follow gcmap on Google+ GCmap on LinkedIn

hCard Microformat

Geo Microformat